Powrót do katalogu

THORAD AGENA D DEB

AktywnyLEO
NORAD 4208·DEBRIS·🇺🇸 United States

Wystrzelony Sep 30, 1969 z Vandenberg Space Force Base

Loading…

Następne Przeloty (najbliższe 24 godziny)

TLE

ŚwieżeSource: Space-Track

Epoka: Sep 14, 2026, 00:40 UTC

1 04208U 69082BX  26257.02784182  .00000400  00000-0  19126-3 0  9999
2 04208  70.0836 119.8831 0014540 224.9838 135.0107 14.25969151 22533

Śledź THORAD AGENA D DEB w czasie rzeczywistym z AllMySat

Download on the App Store